Simultaneous Nadir Overpasses (SNOs) Predictions

Prediction of SNOs between GOES-16 and NOAA-20 Satellite Orbit:

Table of predicted SNOs for the next 14.0 days since TLE Epoch: 1/28/2023
Index Date Time (GOES-16) GOES-16 Lat,Lon NOAA-20 Lat,Lon Distance(km) Time Diff (sec)
1 01/28/2023 18:32:49 0.06, -75.19 -0.42, -77.22 231.95 80
2 01/29/2023 18:16:45 0.05, -75.19 0.61, -72.69 285.18 80
3 01/31/2023 06:38:32 -0.05, -75.20 0.57, -77.95 314.09 80
4 02/01/2023 06:17:08 -0.04, -75.20 -0.47, -73.42 203.20 80
5 02/02/2023 18:39:03 0.04, -75.21 -0.77, -78.71 399.95 80
6 02/03/2023 18:22:59 0.04, -75.22 0.26, -74.19 117.74 80
7 02/05/2023 06:44:46 -0.04, -75.24 0.91, -79.45 480.30 80
8 02/06/2023 06:23:22 -0.04, -75.25 -0.13, -74.92 37.78 80
9 02/08/2023 18:26:32 0.03, -75.29 -0.05, -75.69 45.60 80
10 02/09/2023 18:10:27 0.03, -75.30 0.93, -71.15 473.08 80
